Flag for Canada Weather past 2 weeks in Riverview, New Brunswick, Canada

Now
84 °F

Passing clouds.


Feels Like: 87 °F
Forecast: 65 / 83 °F
Wind: 13 mph from Southwest

Location: Moncton

Current Time: Jul 31, 2015 at 4:35:50 PM

Latest Report: Jul 31, 2015 at 4:00 PM


Visibility: 15 mi

Pressure: 29.59 "Hg

Humidity: 55%

Dew point: 66 °F

Location of RiverviewLocation

Historic Weather in Riverview — Graph

°F

Riverview temperature yesterday

Maximum temperature yesterday: 79 °F (at 3:00 PM)
Minimum temperature yesterday: 55 °F (at 1:00 AM)
Average temperature yesterday: 67 °F

Past Weeks' High & Low Weather Summary

 TemperatureHumidityPressure
High82 °F (Jul 31, 3:00 PM)100% (Jul 19, 8:48 AM)30.09 "Hg (Jul 19, 8:48 AM)
Low48 °F (Jul 17, 5:00 AM)38% (Jul 17, 2:00 PM)29.53 "Hg (Jul 22, 1:00 PM)
Average63 °F85%29.86 "Hg
* Reported Jul 16 3:00 PM — Jul 31 3:00 PM, Riverview, Weather by CustomWeather, © 2015

Note: Actual official high and low records may vary slightly from our data, if they occured in-between our weather recording intervals... More about our weather records

Advertising

Riverview weather history for previous 24 hours

 ConditionsComfort  
Time TempWeatherWind HumidityBarometerVisibility
3:00 PM
Fri, Jul 31
82 °FPassing clouds.16 mph62%29.60 "Hg15 mi
2:00 PM79 °FScattered clouds.18 mph70%29.62 "Hg15 mi
1:00 PM77 °FScattered clouds.16 mph74%29.63 "Hg15 mi
12:00 PM75 °FPartly sunny.16 mph78%29.63 "Hg15 mi
11:49 AM73 °FPartly sunny.13 mph83%29.63 "Hg15 mi
11:00 AM73 °FBroken clouds.14 mph83%29.64 "Hg15 mi
10:00 AM70 °FOvercast.14 mph88%29.64 "Hg15 mi
9:00 AM70 °FLow clouds.8 mph94%29.64 "Hg15 mi
8:00 AM68 °FLow clouds.9 mph94%29.65 "Hg8 mi
7:00 AM68 °FMostly cloudy.9 mph94%29.65 "Hg7 mi
6:52 AM66 °FMostly cloudy.9 mph100%29.65 "Hg7 mi
6:00 AM66 °FMostly cloudy.12 mph100%29.66 "Hg8 mi
5:00 AM66 °FSprinkles. Overcast.9 mph94%29.66 "Hg15 mi
4:04 AM66 °FThunderstorms. Mostly cloudy.3 mph94%29.69 "Hg10 mi
3:49 AM66 °FThunderstorms. Overcast.5 mph94%29.71 "Hg6 mi
3:00 AM68 °FMostly cloudy.9 mph83%29.70 "Hg15 mi
2:00 AM68 °FPassing clouds.7 mph78%29.71 "Hg15 mi
1:00 AM68 °FOvercast.5 mph78%29.74 "Hg15 mi
12:00 AM68 °FPassing clouds.6 mph73%29.76 "Hg15 mi
11:00 PM
Thu, Jul 30
68 °FPassing clouds.7 mph69%29.77 "Hg15 mi
10:00 PM70 °FPassing clouds.8 mph69%29.78 "Hg15 mi
9:00 PM72 °FMostly cloudy.10 mph65%29.78 "Hg15 mi
8:00 PM73 °FPartly sunny.9 mph61%29.80 "Hg15 mi
7:00 PM77 °FPartly sunny.8 mph57%29.80 "Hg15 mi
6:00 PM77 °FPartly sunny.9 mph54%29.80 "Hg15 mi
5:00 PM79 °FPassing clouds.10 mph58%29.81 "Hg15 mi
4:00 PM79 °FPartly sunny.9 mph61%29.82 "Hg15 mi
Weather by CustomWeather, © 2015

See weather overviewHow to use our weather pages